Location: Unspecified
(35.6961°N, 0.0000°E)
Time: 17:26:12
(UTC+00:00)

Vanguard 2 Rocket - Pass Details

Date: 31 May 2019
Orbit: 554 x 3326 km, 32.9° (Epoch: 16 June)

Event Time Altitude Azimuth Distance (km) Brightness Sun altitude
Rises 06:03:10 0° 266° (W) 7,313 10.9 13.6°
Reaches altitude 10° 06:08:12 10° 266° (W) 6,260 10.6 14.6°
Maximum altitude 06:27:55 81° 183° (S) 2,666 9.5 18.5°
Drops below altitude 10° 06:40:21 10° 99° (E) 4,196 11.8 20.9°
Sets 06:43:01 0° 98° (E) 4,889 11.9 21.5°
